Tracking 25710 objects as of 5-Jul-2022
HD Live streaming from Space Station
objects crossing your sky now

STARLINK-3671

Track STARLINK-3671 now!
10-day predictions
STARLINK-3671 is classified as:


NORAD ID: 51972
Int'l Code: 2022-025S
Perigee: 545.8 km
Apogee: 547.9 km
Inclination: 53.2 °
Period: 95.4 minutes
Semi major axis: 6917 km
RCS: Unknown
Launch date: March 9, 2022
Source: United States (US)
Launch site: AIR FORCE EASTERN TEST RANGE (AFETR)
aabbcc
Your satellite tracking list
Your tracking list is empty




NASA's NSSDC Master Catalog

Two Line Element Set (TLE):
1 51972U 22025S   22185.91667824 -.00015562  00000-0 -96151-3 0  9992
2 51972  53.2166 301.5365 0001527  52.9853 160.0047 15.08849914  1300
Source of the keplerian elements: AFSPC